Location: Blackwall
(51.5097°N, 0.0016°W)
Time: 01:04:15
(UTC+00:00)

COSMOS 2428 - Pass Details

Date: 15 May 2026
Orbit: 844 x 855 km, 70.9° (Epoch: 9 June)

Event Time Altitude Azimuth Distance (km) Brightness Sun altitude
Rises 21:04:14 0° 330° (NNW) 3,428 7.8 -10.1°
Reaches altitude 10° 21:07:07 10° 343° (NNW) 2,487 6.3 -10.4°
Maximum altitude 21:11:51 26° 39° (NE) 1,621 4.3 -10.8°
Drops below altitude 10° 21:16:33 10° 95° (E) 2,472 4.7 -11.3°
Enters shadow 21:17:35 - 101° (E) 2,793 5.0 -11.4°
